Total_Precipitation_Accumulation
0.03 0.03 0.02 0.01 0.01 0.04 0.10 0.09 0.31 0.14 0.28 1.11 1.71 1.29 0.77 0.13 0.00 0.02 0.04 0.02 0.03 0.00 0.00 0.00 0.00 0.00 0.00 0.00 0.00 0.00 0.00 0.00 0.00 0.00 0.00 0.00 0.00 0.00 0.00 0.00 0.00 0.00 0.00 0.00
0.03 0.02 0.02 0.01 0.01 0.02 0.07 0.08 0.15 0.12 0.58 0.82 1.10 1.11 0.47 0.04 0.00 0.04 0.09 0.08 0.06 0.01 0.01 0.02 0.00 0.00 0.00 0.00 0.00 0.00 0.00 0.02 0.03 0.02 0.00 0.00 0.00 0.00 0.00 0.00 0.00 0.00 0.00 0.00
0.03 0.02 0.02 0.02 0.01 0.01 0.07 0.07 0.19 0.10 0.83 0.99 0.53 0.62 0.38 0.09 0.01 0.02 0.03 0.04 0.01 0.02 0.11 0.09 0.01 0.01 0.00 0.00 0.00 0.00 0.00 0.01 0.01 0.01 0.00 0.00 0.00 0.00 0.00 0.00 0.00 0.00 0.00 0.00
0.11 0.04 0.02 0.01 0.01 0.01 0.09 0.14 0.23 0.10 0.33 0.78 0.68 0.32 0.18 0.07 0.04 0.06 0.03 0.07 0.06 0.07 0.11 0.16 0.10 0.03 0.00 0.00 0.00 0.00 0.00 0.01 0.00 0.00 0.00 0.00 0.00 0.00 0.00 0.00 0.00 0.00 0.00 0.00
0.06 0.05 0.01 0.01 0.01 0.06 0.13 0.14 0.18 0.11 0.08 0.24 0.49 0.55 0.19 0.08 0.03 0.07 0.07 0.10 0.07 0.04 0.02 0.04 0.08 0.05 0.02 0.00 0.00 0.02 0.01 0.03 0.03 0.01 0.00 0.00 0.00 0.00 0.00 0.00 0.00 0.00 0.00 0.00
0.03 0.03 0.02 0.01 0.02 0.09 0.12 0.11 0.08 0.17 0.09 0.09 0.44 0.57 0.24 0.06 0.03 0.02 0.02 0.01 0.00 0.01 0.01 0.01 0.02 0.08 0.05 0.05 0.03 0.05 0.04 0.05 0.03 0.02 0.02 0.05 0.04 0.00 0.00 0.00 0.00 0.00 0.00 0.00
0.06 0.03 0.02 0.01 0.02 0.05 0.08 0.06 0.06 0.16 0.12 0.12 0.26 0.44 0.25 0.08 0.05 0.02 0.00 0.00 0.02 0.01 0.04 0.08 0.16 0.14 0.14 0.13 0.09 0.09 0.09 0.14 0.17 0.04 0.08 0.14 0.01 0.00 0.00 0.00 0.00 0.00 0.00 0.00
0.18 0.04 0.02 0.02 0.03 0.05 0.08 0.08 0.07 0.12 0.12 0.08 0.14 0.22 0.35 0.28 0.12 0.08 0.03 0.00 0.01 0.02 0.07 0.28 0.41 0.28 0.33 0.26 0.17 0.11 0.12 0.15 0.17 0.09 0.10 0.04 0.00 0.00 0.00 0.00 0.00 0.00 0.00 0.00
0.35 0.11 0.05 0.05 0.04 0.06 0.11 0.10 0.11 0.14 0.15 0.09 0.04 0.16 0.22 0.42 0.44 0.29 0.14 0.08 0.10 0.09 0.20 0.33 0.41 0.38 0.23 0.18 0.14 0.13 0.11 0.10 0.11 0.12 0.08 0.05 0.00 0.00 0.00 0.00 0.00 0.00 0.00 0.00
0.24 0.22 0.15 0.11 0.08 0.07 0.12 0.12 0.11 0.20 0.16 0.04 0.06 0.08 0.16 0.19 0.38 0.57 0.32 0.21 0.20 0.19 0.17 0.25 0.23 0.21 0.07 0.06 0.06 0.06 0.12 0.11 0.17 0.15 0.06 0.01 0.00 0.00 0.00 0.00 0.00 0.00 0.00 0.00
0.09 0.20 0.19 0.15 0.12 0.08 0.09 0.13 0.09 0.24 0.17 0.13 0.13 0.04 0.10 0.14 0.21 0.32 0.45 0.36 0.34 0.47 0.24 0.10 0.12 0.14 0.16 0.07 0.01 0.00 0.02 0.04 0.05 0.07 0.13 0.09 0.00 0.00 0.00 0.00 0.00 0.00 0.00 0.00
0.07 0.11 0.15 0.11 0.09 0.07 0.09 0.12 0.08 0.16 0.31 0.34 0.25 0.17 0.09 0.14 0.12 0.19 0.16 0.38 0.43 0.37 0.35 0.21 0.10 0.05 0.02 0.04 0.03 0.00 0.00 0.00 0.00 0.00 0.01 0.00 0.00 0.00 0.00 0.00 0.00 0.00 0.00 0.00
0.08 0.06 0.06 0.08 0.09 0.07 0.07 0.09 0.09 0.18 0.26 0.26 0.40 0.37 0.12 0.06 0.10 0.11 0.19 0.14 0.28 0.31 0.16 0.19 0.09 0.07 0.02 0.00 0.01 0.01 0.00 0.00 0.00 0.00 0.00 0.00 0.00 0.00 0.00 0.00 0.00 0.00 0.00 0.00
0.21 0.09 0.03 0.04 0.10 0.10 0.11 0.08 0.11 0.08 0.18 0.22 0.27 0.34 0.35 0.10 0.10 0.07 0.08 0.05 0.02 0.10 0.16 0.23 0.22 0.12 0.03 0.01 0.01 0.03 0.04 0.01 0.00 0.00 0.00 0.00 0.00 0.00 0.00 0.00 0.00 0.00 0.00 0.00
0.31 0.28 0.18 0.11 0.13 0.21 0.15 0.09 0.14 0.16 0.13 0.17 0.08 0.18 0.37 0.32 0.13 0.15 0.07 0.03 0.01 0.03 0.10 0.25 0.30 0.17 0.05 0.03 0.02 0.01 0.02 0.03 0.00 0.00 0.00 0.00 0.00 0.00 0.00 0.00 0.00 0.00 0.00 0.00
0.31 0.48 0.37 0.31 0.31 0.27 0.16 0.33 0.33 0.23 0.12 0.11 0.16 0.15 0.22 0.45 0.39 0.19 0.19 0.12 0.04 0.02 0.05 0.08 0.06 0.06 0.03 0.03 0.04 0.00 0.00 0.00 0.00 0.00 0.00 0.00 0.00 0.00 0.00 0.00 0.00 0.00 0.00 0.00
0.08 0.21 0.28 0.30 0.30 0.30 0.24 0.18 0.17 0.20 0.13 0.12 0.14 0.12 0.11 0.24 0.37 0.28 0.21 0.15 0.11 0.07 0.03 0.02 0.01 0.00 0.00 0.00 0.00 0.00 0.00 0.00 0.00 0.00 0.00 0.00 0.00 0.00 0.00 0.00 0.00 0.00 0.00 0.00
0.01 0.04 0.06 0.10 0.17 0.25 0.17 0.05 0.08 0.11 0.19 0.14 0.10 0.11 0.11 0.12 0.18 0.20 0.13 0.11 0.07 0.04 0.03 0.01 0.00 0.00 0.00 0.00 0.00 0.00 0.00 0.00 0.00 0.00 0.00 0.00 0.00 0.00 0.00 0.00 0.00 0.00 0.00 0.00
0.00 0.00 0.00 0.02 0.07 0.13 0.14 0.06 0.04 0.07 0.14 0.16 0.08 0.09 0.10 0.04 0.04 0.03 0.03 0.02 0.02 0.02 0.01 0.00 0.00 0.00 0.00 0.00 0.00 0.00 0.00 0.00 0.00 0.00 0.00 0.00 0.00 0.00 0.00 0.00 0.00 0.00 0.00 0.00
0.00 0.00 0.00 0.01 0.00 0.00 0.00 0.00 0.01 0.03 0.03 0.03 0.06 0.04 0.05 0.04 0.03 0.01 0.00 0.00 0.00 0.00 0.00 0.00 0.00 0.00 0.00 0.00 0.00 0.00 0.00 0.00 0.00 0.00 0.00 0.00 0.00 0.00 0.00 0.00 0.00 0.00 0.00 0.00
0.00 0.00 0.00 0.00 0.00 0.00 0.00 0.00 0.00 0.00 0.02 0.03 0.06 0.02 0.02 0.02 0.01 0.00 0.00 0.00 0.00 0.00 0.00 0.00 0.00 0.00 0.00 0.00 0.00 0.00 0.00 0.00 0.00 0.00 0.00 0.00 0.00 0.00 0.00 0.00 0.00 0.00 0.00 0.00
0.00 0.00 0.00 0.00 0.00 0.00 0.00 0.00 0.00 0.00 0.01 0.02 0.03 0.02 0.01 0.01 0.01 0.00 0.00 0.00 0.00 0.01 0.00 0.00 0.00 0.00 0.00 0.00 0.00 0.00 0.00 0.00 0.00 0.00 0.00 0.00 0.00 0.00 0.00 0.00 0.00 0.00 0.00 0.00
0.00 0.00 0.00 0.00 0.00 0.00 0.00 0.00 0.00 0.01 0.01 0.01 0.01 0.01 0.01 0.00 0.01 0.00 0.00 0.00 0.01 0.00 0.00 0.00 0.00 0.00 0.00 0.00 0.00 0.00 0.00 0.00 0.00 0.00 0.00 0.00 0.00 0.00 0.00 0.00 0.00 0.00 0.00 0.00
0.00 0.00 0.00 0.00 0.01 0.01 0.01 0.02 0.02 0.01 0.01 0.01 0.01 0.01 0.01 0.01 0.00 0.00 0.00 0.00 0.00 0.00 0.00 0.00 0.00 0.00 0.00 0.00 0.00 0.00 0.00 0.00 0.00 0.00 0.00 0.00 0.00 0.00 0.00 0.00 0.00 0.00 0.00 0.00
0.00 0.00 0.00 0.01 0.01 0.01 0.00 0.00 0.01 0.02 0.04 0.03 0.02 0.01 0.01 0.01 0.00 0.00 0.00 0.00 0.00 0.00 0.00 0.01 0.01 0.00 0.00 0.00 0.00 0.00 0.00 0.00 0.00 0.00 0.00 0.00 0.00 0.00 0.00 0.00 0.00 0.00 0.00 0.00
0.00 0.00 0.01 0.01 0.04 0.02 0.02 0.01 0.02 0.03 0.04 0.05 0.03 0.02 0.02 0.00 0.00 0.00 0.00 0.00 0.00 0.01 0.04 0.02 0.00 0.00 0.00 0.00 0.00 0.00 0.00 0.00 0.00 0.00 0.00 0.00 0.00 0.00 0.00 0.00 0.00 0.00 0.00 0.00
0.00 0.00 0.00 0.04 0.06 0.03 0.02 0.06 0.07 0.05 0.06 0.06 0.03 0.00 0.00 0.01 0.02 0.02 0.01 0.02 0.03 0.02 0.01 0.00 0.00 0.00 0.00 0.00 0.00 0.00 0.00 0.00 0.00 0.00 0.00 0.00 0.00 0.00 0.00 0.00 0.01 0.01 0.00 0.00